{"data":{"norad_id":29272,"intl_designator":"2006-033A","name":"JCSAT-3A","alt_names":[],"object_type":"PAYLOAD","status":"ACTIVE","operator":null,"country":"JPN","launch_date":"2006-08-11","launch_site_code":"FRGUI","launch_vehicle":null,"mission":null,"orbit_class":"UNKNOWN","rcs_meters":31.6228,"size_class":null,"mass_kg":null,"dimensions":null,"purposes":["comms"],"wikipedia_slug":null,"has_3d_model":false,"image_url":null,"decayed_at":null,"tle_current":{"epoch":"2026-09-19T22:42:40.794336Z","epoch_age_seconds":62327,"freshness":"FRESH","line1":"1 29272U 06033A   26262.94630549 -.00000349  00000+0  00000+0 0  9997","line2":"2 29272   0.0286 269.9253 0002403 270.3806 287.2245  1.00271647 48696","mean_motion":1.00271647,"eccentricity":0.0002403,"inclination_deg":0.0286,"raan_deg":269.9253,"arg_perigee_deg":270.3806,"mean_anomaly_deg":287.2245,"bstar":0,"rev_number":4869,"period_min":1436.0988804742,"perigee_km":35776.501453258,"apogee_km":35796.765842031,"semimajor_km":42164.770647645,"source":"CELESTRAK","updated_at":"2026-09-20T09:00:35.127577Z"}}}